time_stamp(utc),avg(mph),gust(mph),direction(deg),12m_air_temp(f),sonic_u(cm/s),sonic_v(cm/s),sonic_w(cm/s),pressure,2m_air_temp(f),pyranometer(W/m^2)
"2019-10-08 00:03:36+00",9.8,13.8,,70,502,-1391,568,1018.54,69.6,0
"2019-10-08 00:08:36+00",11.3,15.3,,70,1096,-2535,1158,1018.58,69.6,0
"2019-10-08 00:13:36+00",11.3,14.3,,69.9,869,-2064,1005,1018.63,69.6,0
"2019-10-08 00:18:36+00",8.9,11.9,,69.9,1823,-3518,1776,1018.64,69.5,0
"2019-10-08 00:23:36+00",10.8,16.8,,69.9,1677,-3318,1743,1018.64,69.5,0
"2019-10-08 00:28:36+00",10.0,12.0,,69.9,2199,-4316,2202,1018.66,69.5,0
"2019-10-08 00:33:36+00",10.2,14.2,,69.8,1910,-3823,1923,1018.69,69.5,0
"2019-10-08 00:38:36+00",10.7,13.7,,69.8,1563,-3335,1635,1018.81,69.4,0
"2019-10-08 00:43:36+00",8.8,12.8,,69.7,220,-953,355,1018.79,69.3,0
"2019-10-08 00:48:36+00",6.9,9.9,,69.6,-98,-287,5,1018.71,69.2,0
"2019-10-08 00:53:36+00",9.6,12.6,,69.7,-149,-392,7,1018.79,69.1,0
"2019-10-08 00:58:36+00",6.6,9.6,,69.5,-83,-276,25,1018.83,69,0
"2019-10-08 01:03:36+00",10.0,14.0,,69.5,-109,-417,-2,1018.86,69,0
"2019-10-08 01:08:36+00",9.3,12.3,,69.5,-98,-390,-19,1018.81,69,0
"2019-10-08 01:13:36+00",7.4,9.4,,69.4,-72,-306,20,1018.83,69,0
"2019-10-08 01:18:36+00",7.6,10.6,,69.3,-102,-308,6,1018.9,68.9,0
"2019-10-08 01:23:36+00",8.4,10.4,,69.3,-93,-351,-5,1018.84,68.8,0
"2019-10-08 01:28:36+00",7.4,9.4,,69.2,-75,-310,11,1018.88,68.8,0
"2019-10-08 01:33:36+00",9.3,11.3,,69.2,-102,-383,-7,1018.84,68.8,0
"2019-10-08 01:38:36+00",7.5,11.5,,69.1,-83,-315,-3,1018.79,68.7,0
"2019-10-08 01:43:36+00",8.7,10.7,,69.2,-131,-353,-4,1018.78,68.6,0
"2019-10-08 01:48:36+00",9.0,10.0,,69.2,-156,-364,-5,1018.94,68.6,0
"2019-10-08 01:53:36+00",7.8,9.8,,69.3,-141,-310,0,1018.96,68.6,0
"2019-10-08 01:58:36+00",8.3,10.3,,69.3,-128,-337,-3,1018.88,68.6,0
"2019-10-08 02:03:36+00",7.6,9.6,,69.3,-117,-307,-8,1018.86,68.6,0
"2019-10-08 02:08:36+00",7.2,9.2,,69.2,-97,-300,0,1018.96,68.6,0
"2019-10-08 02:13:36+00",6.8,8.8,,69.2,-59,-292,-4,1019,68.6,0
"2019-10-08 02:18:36+00",6.6,8.6,,69.2,-94,-264,3,1019.04,68.7,0
"2019-10-08 02:23:36+00",6.9,8.9,,69.2,-93,-281,-8,1019.08,68.7,0
"2019-10-08 02:28:36+00",6.8,8.8,,69.3,-136,-264,-1,1019.1,68.6,0
"2019-10-08 02:33:36+00",7.6,8.6,,69.3,-73,-318,-4,1019.23,68.6,0
"2019-10-08 02:38:36+00",8.3,10.3,,69.2,-157,-322,-4,1019.23,68.6,0
"2019-10-08 02:43:36+00",7.7,8.7,,69.1,-181,-291,-2,1019.22,68.5,0
"2019-10-08 02:48:36+00",6.6,7.6,,69.1,-196,-228,1,1019.33,68.5,0
"2019-10-08 02:53:36+00",5.6,6.6,,69,-174,-187,3,1019.37,68.4,0
"2019-10-08 02:58:36+00",5.5,6.5,,68.8,-137,-208,1,1019.41,68.3,0
"2019-10-08 03:03:36+00",4.9,5.9,,68.8,-152,-160,3,1019.41,68.2,0
"2019-10-08 03:08:36+00",4.6,5.6,,68.8,-115,-176,6,1019.36,68.1,0
"2019-10-08 03:13:36+00",4.8,5.8,,68.8,-140,-164,3,1019.35,68.1,0
"2019-10-08 03:18:36+00",5.0,6.0,,68.9,-134,-178,0,1019.31,68,0
"2019-10-08 03:23:36+00",4.6,6.6,,69,-151,-136,8,1019.37,68.1,0
"2019-10-08 03:28:36+00",4.1,5.1,,69,-165,-81,14,1019.44,68.1,0
"2019-10-08 03:33:36+00",13.9,16.9,,68.7,-422,472,39,1019.68,68.1,0
"2019-10-08 03:38:36+00",5.0,6.0,,68.5,-147,165,15,1019.53,68,0
"2019-10-08 03:43:36+00",12.8,16.8,,68.6,-374,448,45,1019.65,68,0
"2019-10-08 03:48:36+00",11.3,14.3,,68.4,-203,466,28,1019.74,68.1,0
"2019-10-08 03:53:36+00",10.6,11.6,,68.5,-265,395,30,1019.84,68,0
"2019-10-08 03:58:36+00",9.0,10.0,,68.4,-225,333,23,1019.87,68.1,0
"2019-10-08 04:03:36+00",6.4,7.4,,68.4,-115,257,11,1019.81,68,0
"2019-10-08 04:08:36+00",8.4,13.4,,68.4,-192,327,12,1019.91,68,0
"2019-10-08 04:13:36+00",13.0,17.0,,68.2,-186,554,46,1019.96,68,0
"2019-10-08 04:18:36+00",13.6,15.6,,67.7,-282,545,31,1020.09,67.7,0
"2019-10-08 04:23:36+00",16.8,19.8,,66.7,-126,724,21,1020.2,67.2,0
"2019-10-08 04:28:36+00",16.1,20.1,,65.9,-155,695,40,1020.18,66.5,0
"2019-10-08 04:33:36+00",15.3,18.3,,65.3,-73,682,36,1020.22,65.9,0
"2019-10-08 04:38:36+00",19.1,24.1,,64.9,-43,838,20,1020.24,65.3,0
"2019-10-08 04:43:36+00",15.3,19.3,,64.4,-43,681,31,1020.34,64.8,0
"2019-10-08 04:48:36+00",16.4,20.4,,64.2,-22,711,15,1020.28,64.4,0
"2019-10-08 04:53:36+00",15.4,18.4,,64.1,-91,679,31,1020.34,64.3,0
"2019-10-08 04:58:36+00",17.8,20.8,,64,-81,786,17,1020.33,64.1,0
"2019-10-08 05:03:36+00",14.8,17.8,,63.8,49,641,39,1020.4,63.9,0
"2019-10-08 05:08:36+00",17.0,19.0,,63.5,65,742,14,1020.44,63.6,0
"2019-10-08 05:13:36+00",17.5,20.5,,63.4,119,760,12,1020.42,63.4,0
"2019-10-08 05:18:36+00",14.9,20.9,,63.3,221,594,10,1020.43,63.3,0
"2019-10-08 05:23:36+00",14.9,18.9,,63.1,222,591,1,1020.37,63.1,0
"2019-10-08 05:28:36+00",19.8,21.8,,62.9,-55,1348,-332,1020.27,62.9,0
"2019-10-08 05:33:36+00",15.2,22.2,,63,186,627,16,1020.34,62.9,0
"2019-10-08 05:38:36+00",18.3,21.3,,62.9,104,926,-91,1020.31,62.8,0
"2019-10-08 05:43:36+00",13.6,19.6,,62.8,254,517,21,1020.46,62.8,0
"2019-10-08 05:48:36+00",20.7,23.7,,62.8,393,833,-38,1020.38,62.7,0
"2019-10-08 05:53:36+00",12.8,14.8,,62.8,238,489,18,1020.47,62.7,0
"2019-10-08 05:58:36+00",14.7,17.7,,62.8,294,573,8,1020.43,62.7,0
"2019-10-08 06:03:36+00",14.4,20.4,,62.8,253,560,12,1020.51,62.7,0
"2019-10-08 06:08:36+00",13.8,16.8,,62.7,222,550,5,1020.51,62.6,0
"2019-10-08 06:13:36+00",14.2,17.2,,62.7,180,570,-3,1020.52,62.6,0
"2019-10-08 06:18:36+00",16.2,21.2,,62.6,282,634,-11,1020.43,62.6,0
"2019-10-08 06:23:36+00",15.9,20.9,,62.6,225,635,0,1020.45,62.5,0
"2019-10-08 06:28:36+00",17.5,20.5,,62.6,356,664,-4,1020.43,62.4,0
"2019-10-08 06:33:36+00",14.6,17.6,,62.5,285,558,5,1020.52,62.4,0
"2019-10-08 06:38:36+00",14.0,18.0,,62.4,312,507,13,1020.4,62.3,0
"2019-10-08 06:43:36+00",17.5,22.5,,62.3,427,618,16,1020.28,62.3,0
"2019-10-08 06:48:36+00",21.5,24.5,,62.2,462,805,3,1020.09,62.1,0
"2019-10-08 06:53:36+00",18.7,22.7,,62.1,415,695,-2,1020.05,61.9,0
"2019-10-08 06:58:36+00",20.1,24.1,,62.1,461,747,-6,1020.06,61.9,0
"2019-10-08 07:03:36+00",19.4,22.4,,62.1,-985,3061,-1311,1020.04,61.9,0
"2019-10-08 07:08:36+00",18.2,22.2,,62.1,-130,1546,-507,1019.98,61.9,0
"2019-10-08 07:13:36+00",19.8,23.8,,62.2,16376,0,201,1019.88,61.9,-0.1
"2019-10-08 07:18:36+00",17.0,20.0,,62.2,-1357,3226,-1444,1019.85,62,0
"2019-10-08 07:43:36+00",17.3,21.3,,62.4,-1469,3456,-1593,1019.88,62.2,0
"2019-10-08 07:48:36+00",17.6,23.6,,62.5,-1228,3054,-1368,1019.93,62.2,0
"2019-10-08 08:03:36+00",18.9,23.9,,62.7,-148,1186,-359,1019.96,62.5,0
"2019-10-08 08:08:36+00",17.7,22.7,,62.6,-877,2563,-1124,1019.91,62.4,0
"2019-10-08 08:23:36+00",18.1,21.1,,62.9,-421,1917,-737,1020.07,62.6,0
"2019-10-08 08:28:36+00",18.0,22.0,,62.9,-910,2688,-1142,1020.12,62.6,0
"2019-10-08 10:03:36+00",20.3,25.3,,63.3,16433,0,259,1020.99,63.4,-0.1
"2019-10-08 10:08:36+00",19.6,23.6,,62.8,-140,1480,-458,1020.95,62.9,0
"2019-10-08 10:13:36+00",23.0,27.0,,62.5,-1003,3112,-1261,1020.95,62.6,0
"2019-10-08 10:18:36+00",19.3,25.3,,62.4,157,1060,-169,1020.78,62.4,0
"2019-10-08 10:23:36+00",22.8,26.8,,62.3,105,1393,-293,1020.71,62.2,0
"2019-10-08 10:28:36+00",19.9,25.9,,62.2,339,796,-28,1020.88,62.1,0
"2019-10-08 10:33:36+00",19.4,23.4,,62.3,445,706,7,1021.14,62.2,0
"2019-10-08 10:38:36+00",12.2,13.2,,62.4,215,469,16,1021.36,62.3,0
"2019-10-08 10:43:36+00",16.9,20.9,,62.3,227,668,-3,1021.38,62.2,0
"2019-10-08 10:48:36+00",18.0,24.0,,62.3,210,748,-1,1021.32,62.2,0
"2019-10-08 10:53:36+00",16.3,20.3,,62.3,338,615,-6,1021.48,62.2,0
"2019-10-08 10:58:36+00",16.9,18.9,,62.1,302,653,-7,1021.47,62.1,0
"2019-10-08 11:03:36+00",18.4,20.4,,62,393,680,3,1021.41,61.9,0
"2019-10-08 11:08:36+00",20.2,23.2,,62,430,768,13,1021.53,61.9,0
"2019-10-08 11:13:36+00",25.5,32.5,,61.8,658,860,-2,1021.53,61.8,0
"2019-10-08 11:18:36+00",22.8,28.8,,61.7,488,866,5,1021.37,61.6,0
"2019-10-08 11:23:36+00",19.5,25.5,,61.6,290,914,-108,1021.4,61.5,0
"2019-10-08 11:28:36+00",20.8,26.8,,61.6,-196,1735,-560,1021.61,61.4,0
"2019-10-08 12:13:36+00",25.3,28.3,,62.2,16490,0,272,1021.72,62.1,-0.1
"2019-10-08 12:18:36+00",23.9,29.9,,62.3,-1544,4509,-2066,1021.69,62.1,0
"2019-10-08 12:33:36+00",26.0,31.0,,62.6,-696,2990,-1280,1021.47,62.4,1.4
"2019-10-08 12:38:36+00",24.2,29.2,,62.7,1619,-953,959,1021.51,62.5,4.6
"2019-10-08 12:43:36+00",25.4,30.4,,62.8,1586,-662,766,1021.46,62.6,6.1
"2019-10-08 12:48:36+00",29.3,31.3,,62.8,1010,747,81,1021.47,62.7,8.3
"2019-10-08 12:53:36+00",26.7,29.7,,62.8,1050,390,272,1021.4,62.7,10.3
"2019-10-08 12:58:36+00",28.5,31.5,,62.9,931,796,35,1021.42,62.8,13.6
"2019-10-08 13:03:36+00",22.9,26.9,,62.9,788,601,70,1021.49,62.8,8.5
"2019-10-08 13:08:36+00",25.4,30.4,,63,992,438,196,1021.55,62.9,3.8
"2019-10-08 13:13:36+00",28.3,33.3,,63,972,714,88,1021.55,62.9,5.7
"2019-10-08 13:18:36+00",24.5,29.5,,63,972,428,178,1021.72,62.9,7.5
"2019-10-08 13:23:36+00",24.8,28.8,,63.1,1071,403,221,1021.75,63,9.3
"2019-10-08 13:28:36+00",26.1,30.1,,63.1,943,592,102,1021.73,63,8.1
"2019-10-08 13:33:36+00",27.6,31.6,,63.1,884,732,76,1021.66,63,11.7
"2019-10-08 13:38:36+00",27.8,33.8,,63.1,1031,522,172,1021.61,63.1,11.6
"2019-10-08 13:43:36+00",23.2,27.2,,63,1264,-302,577,1021.67,63.1,13.3
"2019-10-08 13:48:36+00",27.2,32.2,,62.9,1791,-940,1011,1021.62,63,15.1
"2019-10-08 13:53:36+00",27.7,30.7,,62.9,1382,-193,608,1021.68,63,15.2
"2019-10-08 13:58:36+00",30.1,35.1,,63.1,1672,-348,704,1021.66,63,17.8
"2019-10-08 14:03:36+00",26.3,29.3,,63.1,848,714,58,1021.65,63.1,18.6
"2019-10-08 14:08:36+00",28.4,32.4,,63.3,958,701,87,1021.62,63.2,18.8
"2019-10-08 14:13:36+00",26.9,30.9,,63.5,1017,643,44,1021.58,63.3,20
"2019-10-08 14:18:36+00",24.8,27.8,,63.6,845,680,53,1021.57,63.4,21.4
"2019-10-08 14:23:36+00",27.2,30.2,,63.7,915,746,41,1021.39,63.5,25.4
"2019-10-08 14:28:36+00",26.9,31.9,,63.7,1008,643,73,1021.33,63.6,29.6
"2019-10-08 14:33:36+00",29.3,32.3,,63.7,1027,784,56,1021.35,63.7,33.1
"2019-10-08 14:38:36+00",28.7,33.7,,63.7,1037,730,50,1021.41,63.7,35.1
"2019-10-08 14:43:36+00",28.7,33.7,,63.8,1004,767,40,1021.55,63.8,35.4
"2019-10-08 14:48:36+00",28.9,33.9,,63.8,1027,748,60,1021.59,63.8,35.9
"2019-10-08 14:53:36+00",23.7,28.7,,63.9,899,557,57,1021.76,63.9,37.1
"2019-10-08 14:58:36+00",27.7,30.7,,64,985,730,38,1021.75,64,36.6
"2019-10-08 15:03:36+00",27.9,32.9,,64,1054,655,39,1021.71,64,33.6
"2019-10-08 15:08:36+00",29.3,34.3,,64,996,805,12,1021.68,64,32.2
"2019-10-08 15:13:36+00",26.1,31.1,,63.9,863,722,19,1021.79,64,31.8
"2019-10-08 15:18:36+00",24.2,28.2,,63.8,852,643,48,1021.85,63.9,36.9
"2019-10-08 15:23:36+00",28.2,31.2,,63.7,955,771,35,1021.76,63.9,33.4
"2019-10-08 15:28:36+00",22.7,26.7,,63.7,704,663,-14,1021.78,63.8,35.1
"2019-10-08 15:33:36+00",23.0,26.0,,63.5,781,634,46,1021.64,63.7,32.2
"2019-10-08 15:38:36+00",22.8,27.8,,63.4,730,654,20,1021.64,63.7,29.6
"2019-10-08 15:43:36+00",22.9,26.9,,63.4,779,625,45,1021.58,63.5,26.8
"2019-10-08 15:48:36+00",24.3,28.3,,63.4,810,674,29,1021.5,63.5,27.8
"2019-10-08 15:53:36+00",25.3,29.3,,63.5,838,709,24,1021.55,63.5,30.5
"2019-10-08 15:58:36+00",26.6,29.6,,63.5,901,726,23,1021.57,63.5,25.8
"2019-10-08 16:03:36+00",28.0,31.0,,63.4,939,775,14,1021.48,63.4,25.3
"2019-10-08 16:08:36+00",25.3,29.3,,63.4,858,690,36,1021.35,63.4,30.7
"2019-10-08 16:13:36+00",29.4,32.4,,63.4,1114,701,37,1021.24,63.5,31.4
"2019-10-08 16:18:36+00",25.2,29.2,,63.4,844,695,35,1021.1,63.5,24.4
"2019-10-08 16:23:36+00",26.0,31.0,,63.3,910,690,31,1021.07,63.4,24.4
"2019-10-08 16:28:36+00",26.5,30.5,,63.4,937,693,41,1021.09,63.4,20.1
"2019-10-08 16:33:36+00",22.6,25.6,,63.4,898,462,48,1021.1,63.4,19.5
"2019-10-08 16:38:36+00",21.4,26.4,,63.5,833,476,39,1021.12,63.5,20.5
"2019-10-08 16:43:36+00",22.8,27.8,,63.5,860,543,46,1021.05,63.5,25.1
"2019-10-08 16:48:36+00",22.2,25.2,,63.5,878,464,38,1021,63.6,30.6
"2019-10-08 16:53:36+00",24.3,27.3,,63.5,857,639,49,1020.95,63.7,25.2
"2019-10-08 16:58:36+00",24.9,27.9,,63.5,925,614,44,1020.89,63.7,25.7
"2019-10-08 17:03:36+00",20.5,23.5,,63.7,821,412,40,1021.1,63.7,26.2
"2019-10-08 17:08:36+00",23.4,26.4,,63.5,802,633,34,1021.1,63.7,23.8
"2019-10-08 17:13:36+00",23.0,27.0,,63.5,707,674,29,1021.02,63.6,16.8
"2019-10-08 17:18:36+00",23.6,26.6,,63.4,800,650,43,1020.84,63.6,19.7
"2019-10-08 17:23:36+00",23.0,28.0,,63.5,835,589,37,1020.76,63.6,17.5
"2019-10-08 17:28:36+00",20.8,23.8,,63.6,736,546,37,1020.81,63.6,21.5
"2019-10-08 17:33:36+00",22.9,25.9,,63.6,826,591,53,1020.75,63.6,22.2
"2019-10-08 17:38:36+00",24.8,27.8,,63.5,930,594,41,1020.64,63.5,20.9
"2019-10-08 17:43:36+00",24.9,28.9,,63.5,883,655,54,1020.44,63.5,22.1
"2019-10-08 17:48:36+00",26.3,30.3,,63.4,945,692,47,1020.35,63.4,22.3
"2019-10-08 17:53:36+00",23.2,29.2,,63.5,789,634,44,1020.27,63.5,21.2
"2019-10-08 17:58:36+00",28.7,31.7,,63.5,1004,758,39,1020.29,63.5,23
"2019-10-08 18:03:36+00",27.6,32.6,,63.5,887,786,27,1020.25,63.5,23.9
"2019-10-08 18:08:36+00",24.6,29.6,,63.6,808,692,40,1020.28,63.6,24.4
"2019-10-08 18:13:36+00",23.2,27.2,,63.6,726,681,26,1020.31,63.6,25.2
"2019-10-08 18:18:36+00",26.6,30.6,,63.6,889,742,25,1020.26,63.6,25.8
"2019-10-08 18:23:36+00",28.2,31.2,,63.5,954,770,49,1020.21,63.6,27.3
"2019-10-08 18:28:36+00",26.3,29.3,,63.5,799,767,13,1020.19,63.6,30.4
"2019-10-08 18:33:36+00",24.7,28.7,,63.4,762,724,17,1020.18,63.6,32.7
"2019-10-08 18:38:36+00",25.2,28.2,,63.3,769,742,11,1019.9,63.5,34
"2019-10-08 18:43:36+00",27.5,31.5,,63.2,775,849,8,1019.87,63.4,39
"2019-10-08 18:48:36+00",22.4,26.4,,63.3,679,674,29,1019.93,63.4,39.7
"2019-10-08 18:53:36+00",21.9,25.9,,63.3,672,638,32,1020.06,63.5,46.4
"2019-10-08 18:58:36+00",26.2,31.2,,63.2,806,771,9,1019.95,63.5,54.9
"2019-10-08 19:03:36+00",26.8,29.8,,63.1,810,781,3,1019.93,63.5,56.4
"2019-10-08 19:08:36+00",27.7,29.7,,63.1,771,866,1,1019.96,63.4,63.5
"2019-10-08 19:13:36+00",28.8,33.8,,63.2,905,828,18,1019.8,63.5,73.2
"2019-10-08 19:18:36+00",23.1,27.1,,63.3,736,666,37,1019.8,63.7,73.2
"2019-10-08 19:23:36+00",25.1,32.1,,63.2,779,743,29,1019.84,63.6,62.7
"2019-10-08 19:28:36+00",22.5,24.5,,63.2,605,729,8,1019.79,63.6,56.8
"2019-10-08 19:33:36+00",24.0,27.0,,63.1,654,783,6,1019.76,63.5,52.6
"2019-10-08 19:38:36+00",21.6,30.6,,63.1,548,725,4,1019.8,63.4,53
"2019-10-08 19:43:36+00",22.4,26.4,,63.2,597,751,22,1019.7,63.4,43.9
"2019-10-08 19:48:36+00",26.3,31.3,,63.1,779,793,16,1019.77,63.4,32.5
"2019-10-08 19:53:36+00",25.2,30.2,,63,681,852,11,1019.77,63.2,25.1
"2019-10-08 19:58:36+00",25.9,30.9,,63,682,855,3,1019.67,63.2,24.4
"2019-10-08 20:03:36+00",28.7,31.7,,62.9,931,813,11,1019.46,63.1,18.7
"2019-10-08 20:08:36+00",24.1,28.1,,62.9,757,698,24,1019.43,63.1,17.9
"2019-10-08 20:13:36+00",24.5,30.5,,63,702,753,12,1019.48,63.1,15.8
"2019-10-08 20:18:36+00",24.7,28.7,,63,753,728,23,1019.57,63.1,18.1
"2019-10-08 20:23:36+00",26.7,29.7,,63,772,823,11,1019.65,63.1,12.2
"2019-10-08 20:28:36+00",25.3,30.3,,63,705,795,2,1019.74,63.1,13.8
"2019-10-08 20:33:36+00",29.2,32.2,,63,756,985,-10,1019.86,63.1,19.1
"2019-10-08 20:38:36+00",26.3,30.3,,63.1,689,882,-8,1019.83,63.1,24.5
"2019-10-08 20:43:36+00",23.4,27.4,,63.2,650,745,2,1019.67,63.2,22.3
"2019-10-08 20:48:36+00",26.0,31.0,,63.2,636,923,15,1019.63,63.2,18.2
"2019-10-08 20:53:36+00",24.4,27.4,,63.2,710,744,17,1019.65,63.2,12.9
"2019-10-08 20:58:36+00",25.9,27.9,,63.2,789,771,29,1019.52,63.3,11.5
"2019-10-08 21:03:36+00",26.6,32.6,,63.3,879,743,32,1019.56,63.3,9.1
"2019-10-08 21:08:36+00",27.5,31.5,,63.3,799,839,2,1019.65,63.3,8.8
"2019-10-08 21:13:36+00",20.9,24.9,,63.4,664,597,29,1019.68,63.4,7.6
"2019-10-08 21:18:36+00",24.8,28.8,,63.4,801,708,61,1019.59,63.4,5.1
"2019-10-08 21:23:36+00",25.1,29.1,,63.3,759,748,9,1019.61,63.3,3.3
"2019-10-08 21:28:36+00",25.6,30.6,,63.2,781,750,20,1019.61,63.2,3.5
"2019-10-08 21:33:36+00",26.2,30.2,,63.1,693,865,20,1019.63,63.1,4.3
"2019-10-08 21:38:36+00",20.8,27.8,,63.2,554,692,34,1019.77,63.2,6.9
"2019-10-08 21:43:36+00",27.5,30.5,,63.1,748,877,-8,1019.81,63.1,6
"2019-10-08 21:48:36+00",23.0,27.0,,63.1,571,802,9,1019.89,63,3.1
"2019-10-08 21:53:36+00",29.3,32.3,,63.2,885,849,8,1019.87,63.1,1
"2019-10-08 21:58:36+00",26.7,30.7,,63.2,717,867,2,1019.8,63.1,0.5
"2019-10-08 22:03:36+00",27.1,31.1,,63.2,804,798,9,1019.99,63.1,0.1
"2019-10-08 22:08:36+00",26.4,32.4,,63.2,741,833,7,1019.95,63.1,0
"2019-10-08 22:13:36+00",27.0,31.0,,63.2,823,786,29,1019.99,63,0
"2019-10-08 22:18:36+00",25.0,29.0,,63.2,742,753,21,1019.95,63,0
"2019-10-08 22:23:36+00",23.6,27.6,,63.2,764,668,47,1020.13,63,0
"2019-10-08 22:28:36+00",27.9,29.9,,63,768,878,-5,1019.91,62.8,0
"2019-10-08 22:33:36+00",23.7,26.7,,63.1,708,709,33,1019.78,62.7,0
"2019-10-08 22:38:36+00",24.9,29.9,,63.1,684,791,4,1019.74,62.7,0
"2019-10-08 22:43:36+00",26.1,29.1,,63.1,704,816,-1,1019.76,62.7,0
"2019-10-08 22:48:36+00",23.6,26.6,,63.1,702,707,5,1019.73,62.7,0
"2019-10-08 22:53:36+00",24.5,27.5,,63.1,806,688,48,1019.83,62.8,0
"2019-10-08 22:58:36+00",28.1,31.1,,63.1,776,856,12,1019.77,62.8,0
"2019-10-08 23:03:36+00",25.7,29.7,,63.1,720,818,12,1019.8,62.8,0
"2019-10-08 23:08:36+00",24.5,27.5,,63.2,780,714,25,1019.85,62.9,0
"2019-10-08 23:13:36+00",23.8,27.8,,63.3,760,680,43,1019.89,63,0
"2019-10-08 23:18:36+00",27.2,30.2,,63.3,915,759,32,1019.8,63,0
"2019-10-08 23:23:36+00",23.5,25.5,,63.3,773,655,37,1019.76,63,0
"2019-10-08 23:28:36+00",26.6,29.6,,63.3,925,718,38,1019.71,63,0
"2019-10-08 23:33:36+00",22.6,25.6,,63.3,737,639,38,1019.79,63,0
"2019-10-08 23:38:36+00",25.1,28.1,,63.1,683,807,0,1019.89,62.8,0
"2019-10-08 23:43:36+00",24.6,27.6,,63.2,808,691,23,1019.93,62.9,0
"2019-10-08 23:48:36+00",23.9,27.9,,63.3,811,652,64,1019.95,63,0
"2019-10-08 23:53:36+00",21.1,24.1,,63.2,562,693,-8,1020.01,63,0
"2019-10-08 23:58:36+00",23.1,27.1,,62.9,682,705,14,1020.03,62.7,0
